Terminal Aerodrome Forecast
Issued by NWS New Orleans/Baton Rouge, LA

Home | Current Version | Previous Version | Text Only | Print | Product List | Glossary On
Versions: 1 2 3 4 5 6 7 8 9 10 11 12 13 14 15 16 17 18 19
000
FTUS44 KLIX 252300
TAFBTR
TAF
KBTR 252322Z 2600/2624 VRB03KT P6SM SCT140 BKN250
     FM260800 VRB03KT P6SM SKC
     FM261500 23008KT P6SM SKC
     FM261800 24012KT P6SM SKC=

USA.gov is the U.S. government's official web portal to all federal, state and local government web resources and services.